Weather in Vortchino

Russia / Udmurt Republic     57°18′25″N   53°43′11″E
temp.,
°C
wind,
m/s
gust,
m/s
humid.,
%
clouds,
%
prec.,
mm/h
press.,
hPa
HPBL,
m
13 may, thu
thu1301:00+16e116716 0.0 102711
04:00+15se11705 0.0 102711
07:00+19s115915 0.0 1027112
10:00+23sse23400 0.0 1026669
13:00+26s34310 0.0 10262135
16:00+26ssw55282 0.0 10251907
19:00+22ssw34455 0.0 102568
22:00+18s22535 0.0 102518
14 may, fri
fri1401:00+16sse22595 0.0 102414
04:00+15s22655 0.0 102517
07:00+18s37575 0.0 1024213
10:00+24s574394 0.0 1023721
13:00+27ssw710332 0.0 10221523
16:00+27ssw61036100 0.0 10212118
19:00+24ssw495040 0.0 1020234
22:00+19ssw3861100 0.0 1021136
15 may, sat
sat1501:00+17ssw22665 0.0 102136
04:00+15sw227211 0.0 102120
07:00+19sw366419 0.0 1021233
10:00+24sw4648100 0.0 1021652
13:00+26sw6836100 0.0 10201195
16:00+27sw5836100 0.0 10201112
19:00+23ssw495077 0.0 1019189
22:00+19ssw3959100 0.0 1019144
16 may, sun
sun1601:00+17sw3562100 0.0 101977
04:00+15ssw336433 0.0 102026
07:00+19ssw385716 0.0 1020234
10:00+25ssw693825 0.0 1019820
13:00+28sw810305 0.0 10182780
16:00+29sw7103346 0.0 10173189
19:00+24sw5104362 0.0 1016225
22:00+19sw3454100 0.0 101663
17 may, mon
mon1701:00+18sw366399 0.0 101688
04:00+15wsw337493 0.0 101649
07:00+18wsw347463 0.0 1017191
10:00+23w57540 0.0 10171156
13:00+26wnw69410 0.0 10172266
16:00+26wnw68355 0.0 10172486
19:00+22nnw485499 0.0 1017230
22:00+18nnw2262100 0.0 101916